Year,Month,Day,Hour,Minute,Value (Times are PST for temperature in C)
2008,06,16,00,00,9.60
2008,06,16,00,01,9.60
2008,06,16,00,02,9.50
2008,06,16,00,03,9.50
2008,06,16,00,04,9.50
2008,06,16,00,05,9.40
2008,06,16,00,06,9.40
2008,06,16,00,07,9.40
2008,06,16,00,08,9.40
2008,06,16,00,09,9.40
2008,06,16,00,10,9.40
2008,06,16,00,11,9.40
2008,06,16,00,12,9.30
2008,06,16,00,13,9.30
2008,06,16,00,14,9.30
2008,06,16,00,15,9.30
2008,06,16,00,16,9.30
2008,06,16,00,17,9.30
2008,06,16,00,18,9.20
2008,06,16,00,19,9.20
2008,06,16,00,20,9.20
2008,06,16,00,21,9.20
2008,06,16,00,22,9.20
2008,06,16,00,23,9.20
2008,06,16,00,24,9.20
2008,06,16,00,25,9.20
2008,06,16,00,26,9.20
2008,06,16,00,27,9.20
2008,06,16,00,28,9.20
2008,06,16,00,29,9.20
2008,06,16,00,30,9.20
2008,06,16,00,31,9.20
2008,06,16,00,32,9.20
2008,06,16,00,33,9.20
2008,06,16,00,34,9.20
2008,06,16,00,35,9.10
2008,06,16,00,36,9.10
2008,06,16,00,37,9.10
2008,06,16,00,38,9.10
2008,06,16,00,39,9.10
2008,06,16,00,40,9.10
2008,06,16,00,41,9.10
2008,06,16,00,42,9.10
2008,06,16,00,43,9.10
2008,06,16,00,44,9.10
2008,06,16,00,45,9.10
2008,06,16,00,46,9.00
2008,06,16,00,47,9.00
2008,06,16,00,48,9.00
2008,06,16,00,49,9.00
2008,06,16,00,50,9.00
2008,06,16,00,51,9.00
2008,06,16,00,52,9.00
2008,06,16,00,53,8.90
2008,06,16,00,54,8.90
2008,06,16,00,55,8.90
2008,06,16,00,56,8.90
2008,06,16,00,57,8.90
2008,06,16,00,58,8.90
2008,06,16,00,59,8.90
2008,06,16,01,00,8.90
2008,06,16,01,01,8.90
2008,06,16,01,02,8.90
2008,06,16,01,03,8.90
2008,06,16,01,04,8.90
2008,06,16,01,05,8.90
2008,06,16,01,06,8.90
2008,06,16,01,07,8.90
2008,06,16,01,08,8.90
2008,06,16,01,09,8.90
2008,06,16,01,10,8.90
2008,06,16,01,11,8.90
2008,06,16,01,12,8.90
2008,06,16,01,13,8.90
2008,06,16,01,14,8.80
2008,06,16,01,15,8.80
2008,06,16,01,16,8.80
2008,06,16,01,17,8.80
2008,06,16,01,18,8.70
2008,06,16,01,19,8.70
2008,06,16,01,20,8.70
2008,06,16,01,21,8.70
2008,06,16,01,22,8.70
2008,06,16,01,23,8.70
2008,06,16,01,24,8.60
2008,06,16,01,25,8.60
2008,06,16,01,26,8.60
2008,06,16,01,27,8.50
2008,06,16,01,28,8.50
2008,06,16,01,29,8.50
2008,06,16,01,30,8.50
2008,06,16,01,31,8.40
2008,06,16,01,32,8.40
2008,06,16,01,33,8.40
2008,06,16,01,34,8.40
2008,06,16,01,35,8.40
2008,06,16,01,36,8.30
2008,06,16,01,37,8.30
2008,06,16,01,38,8.30
2008,06,16,01,39,8.30
2008,06,16,01,40,8.30
2008,06,16,01,41,8.30
2008,06,16,01,42,8.20
2008,06,16,01,43,8.20
2008,06,16,01,44,8.20
2008,06,16,01,45,8.20
2008,06,16,01,46,8.20
2008,06,16,01,47,8.20
2008,06,16,01,48,8.20
2008,06,16,01,49,8.20
2008,06,16,01,50,8.10
2008,06,16,01,51,8.10
2008,06,16,01,52,8.10
2008,06,16,01,53,8.10
2008,06,16,01,54,8.10
2008,06,16,01,55,8.10
2008,06,16,01,56,8.00
2008,06,16,01,57,8.00
2008,06,16,01,58,8.00
2008,06,16,01,59,8.00
2008,06,16,02,00,8.00
2008,06,16,02,01,8.00
2008,06,16,02,02,8.00
2008,06,16,02,03,8.00
2008,06,16,02,04,8.00
2008,06,16,02,05,8.00
2008,06,16,02,06,7.90
2008,06,16,02,07,7.90
2008,06,16,02,08,7.90
2008,06,16,02,09,7.90
2008,06,16,02,10,7.90
2008,06,16,02,11,7.90
2008,06,16,02,12,7.90
2008,06,16,02,13,7.90
2008,06,16,02,14,7.80
2008,06,16,02,15,7.80
2008,06,16,02,16,7.80
2008,06,16,02,17,7.80
2008,06,16,02,18,7.80
2008,06,16,02,19,7.80
2008,06,16,02,20,7.80
2008,06,16,02,21,7.70
2008,06,16,02,22,7.70
2008,06,16,02,23,7.70
2008,06,16,02,24,7.60
2008,06,16,02,25,7.60
2008,06,16,02,26,7.60
2008,06,16,02,27,7.60
2008,06,16,02,28,7.60
2008,06,16,02,29,7.60
2008,06,16,02,30,7.60
2008,06,16,02,31,7.60
2008,06,16,02,32,7.60
2008,06,16,02,33,7.60
2008,06,16,02,34,7.60
2008,06,16,02,35,7.60
2008,06,16,02,36,7.60
2008,06,16,02,37,7.60
2008,06,16,02,38,7.60
2008,06,16,02,39,7.60
2008,06,16,02,40,7.50
2008,06,16,02,41,7.50
2008,06,16,02,42,7.60
2008,06,16,02,43,7.60
2008,06,16,02,44,7.60
2008,06,16,02,45,7.50
2008,06,16,02,46,7.50
2008,06,16,02,47,7.50
2008,06,16,02,48,7.50
2008,06,16,02,49,7.50
2008,06,16,02,50,7.50
2008,06,16,02,51,7.50
2008,06,16,02,52,7.40
2008,06,16,02,53,7.40
2008,06,16,02,54,7.40
2008,06,16,02,55,7.40
2008,06,16,02,56,7.40
2008,06,16,02,57,7.40
2008,06,16,02,58,7.40
2008,06,16,02,59,7.40
2008,06,16,03,00,7.40
2008,06,16,03,01,7.30
2008,06,16,03,02,7.30
2008,06,16,03,03,7.30
2008,06,16,03,04,7.30
2008,06,16,03,05,7.30
2008,06,16,03,06,7.30
2008,06,16,03,07,7.30
2008,06,16,03,08,7.20
2008,06,16,03,09,7.20
2008,06,16,03,10,7.20
2008,06,16,03,11,7.20
2008,06,16,03,12,7.20
2008,06,16,03,13,7.10
2008,06,16,03,14,7.10
2008,06,16,03,15,7.10
2008,06,16,03,16,7.10
2008,06,16,03,17,7.10
2008,06,16,03,18,7.00
2008,06,16,03,19,7.00
2008,06,16,03,20,7.00
2008,06,16,03,21,7.00
2008,06,16,03,22,7.00
2008,06,16,03,23,7.00
2008,06,16,03,24,7.00
2008,06,16,03,25,7.00
2008,06,16,03,26,7.00
2008,06,16,03,27,7.00
2008,06,16,03,28,7.00
2008,06,16,03,29,7.00
2008,06,16,03,30,7.00
2008,06,16,03,31,7.00
2008,06,16,03,32,6.90
2008,06,16,03,33,6.90
2008,06,16,03,34,6.90
2008,06,16,03,35,6.90
2008,06,16,03,36,6.90
2008,06,16,03,37,6.90
2008,06,16,03,38,6.90
2008,06,16,03,39,6.90
2008,06,16,03,40,6.90
2008,06,16,03,41,6.90
2008,06,16,03,42,6.90
2008,06,16,03,43,6.90
2008,06,16,03,44,6.90
2008,06,16,03,45,6.90
2008,06,16,03,46,6.90
2008,06,16,03,47,6.90
2008,06,16,03,48,6.90
2008,06,16,03,49,6.90
2008,06,16,03,50,6.90
2008,06,16,03,51,6.90
2008,06,16,03,52,6.90
2008,06,16,03,53,6.90
2008,06,16,03,54,7.00
2008,06,16,03,55,7.00
2008,06,16,03,56,7.00
2008,06,16,03,57,7.00
2008,06,16,03,58,7.00
2008,06,16,03,59,7.00
2008,06,16,04,00,7.00
2008,06,16,04,01,7.00
2008,06,16,04,02,7.00
2008,06,16,04,03,7.00
2008,06,16,04,04,6.90
2008,06,16,04,05,6.90
2008,06,16,04,06,6.90
2008,06,16,04,07,6.90
2008,06,16,04,08,6.90
2008,06,16,04,09,6.90
2008,06,16,04,10,6.90
2008,06,16,04,11,6.80
2008,06,16,04,12,6.80
2008,06,16,04,13,6.80
2008,06,16,04,14,6.80
2008,06,16,04,15,6.80
2008,06,16,04,16,6.80
2008,06,16,04,17,6.80
2008,06,16,04,18,6.80
2008,06,16,04,19,6.80
2008,06,16,04,20,6.80
2008,06,16,04,21,6.70
2008,06,16,04,22,6.70
2008,06,16,04,23,6.70
2008,06,16,04,24,6.70
2008,06,16,04,25,6.60
2008,06,16,04,26,6.60
2008,06,16,04,27,6.60
2008,06,16,04,28,6.60
2008,06,16,04,29,6.60
2008,06,16,04,30,6.60
2008,06,16,04,31,6.60
2008,06,16,04,32,6.50
2008,06,16,04,33,6.40
2008,06,16,04,34,6.40
2008,06,16,04,35,6.40
2008,06,16,04,36,6.40
2008,06,16,04,37,6.50
2008,06,16,04,38,6.60
2008,06,16,04,39,6.60
2008,06,16,04,40,6.60
2008,06,16,04,41,6.60
2008,06,16,04,42,6.60
2008,06,16,04,43,6.60
2008,06,16,04,44,6.60
2008,06,16,04,45,6.60
2008,06,16,04,46,6.60
2008,06,16,04,47,6.60
2008,06,16,04,48,6.50
2008,06,16,04,49,6.40
2008,06,16,04,50,6.40
2008,06,16,04,51,6.40
2008,06,16,04,52,6.40
2008,06,16,04,53,6.40
2008,06,16,04,54,6.40
2008,06,16,04,55,6.40
2008,06,16,04,56,6.40
2008,06,16,04,57,6.30
2008,06,16,04,58,6.30
2008,06,16,04,59,6.30
2008,06,16,05,00,6.30
2008,06,16,05,01,6.30
2008,06,16,05,02,6.30
2008,06,16,05,03,6.30
2008,06,16,05,04,6.30
2008,06,16,05,05,6.30
2008,06,16,05,06,6.30
2008,06,16,05,07,6.30
2008,06,16,05,08,6.30
2008,06,16,05,09,6.30
2008,06,16,05,10,6.30
2008,06,16,05,11,6.30
2008,06,16,05,12,6.30
2008,06,16,05,13,6.40
2008,06,16,05,14,6.40
2008,06,16,05,15,6.40
2008,06,16,05,16,6.40
2008,06,16,05,17,6.40
2008,06,16,05,18,6.40
2008,06,16,05,19,6.40
2008,06,16,05,20,6.40
2008,06,16,05,21,6.40
2008,06,16,05,22,6.40
2008,06,16,05,23,6.40
2008,06,16,05,24,6.40
2008,06,16,05,25,6.40
2008,06,16,05,26,6.40
2008,06,16,05,27,6.40
2008,06,16,05,28,6.40
2008,06,16,05,29,6.40
2008,06,16,05,30,6.40
2008,06,16,05,31,6.40
2008,06,16,05,32,6.40
2008,06,16,05,33,6.40
2008,06,16,05,34,6.40
2008,06,16,05,35,6.40
2008,06,16,05,36,6.40
2008,06,16,05,37,6.40
2008,06,16,05,38,6.40
2008,06,16,05,39,6.40
2008,06,16,05,40,6.40
2008,06,16,05,41,6.40
2008,06,16,05,42,6.40
2008,06,16,05,43,6.40
2008,06,16,05,44,6.40
2008,06,16,05,45,6.40
2008,06,16,05,46,6.40
2008,06,16,05,47,6.40
2008,06,16,05,48,6.40
2008,06,16,05,49,6.40
2008,06,16,05,50,6.40
2008,06,16,05,51,6.40
2008,06,16,05,52,6.40
2008,06,16,05,53,6.40
2008,06,16,05,54,6.40
2008,06,16,05,55,6.40
2008,06,16,05,56,6.40
2008,06,16,05,57,6.40
2008,06,16,05,58,6.40
2008,06,16,05,59,6.40
2008,06,16,06,00,6.40
2008,06,16,06,01,6.40
2008,06,16,06,02,6.50
2008,06,16,06,03,6.60
2008,06,16,06,04,6.60
2008,06,16,06,05,6.60
2008,06,16,06,06,6.60
2008,06,16,06,07,6.60
2008,06,16,06,08,6.60
2008,06,16,06,09,6.60
2008,06,16,06,10,6.60
2008,06,16,06,11,6.60
2008,06,16,06,12,6.60
2008,06,16,06,13,6.70
2008,06,16,06,14,6.70
2008,06,16,06,15,6.70
2008,06,16,06,16,6.70
2008,06,16,06,17,6.80
2008,06,16,06,18,6.80
2008,06,16,06,19,6.80
2008,06,16,06,20,6.90
2008,06,16,06,21,7.00
2008,06,16,06,22,7.00
2008,06,16,06,23,7.10
2008,06,16,06,24,7.10
2008,06,16,06,25,7.20
2008,06,16,06,26,7.30
2008,06,16,06,27,7.30
2008,06,16,06,28,7.30
2008,06,16,06,29,7.30
2008,06,16,06,30,7.30
2008,06,16,06,31,7.30
2008,06,16,06,32,7.30
2008,06,16,06,33,7.30
2008,06,16,06,34,7.30
2008,06,16,06,35,7.30
2008,06,16,06,36,7.30
2008,06,16,06,37,7.30
2008,06,16,06,38,7.30
2008,06,16,06,39,7.30
2008,06,16,06,40,7.40
2008,06,16,06,41,7.50
2008,06,16,06,42,7.60
2008,06,16,06,43,7.60
2008,06,16,06,44,7.70
2008,06,16,06,45,7.80
2008,06,16,06,46,7.80
2008,06,16,06,47,7.90
2008,06,16,06,48,8.00
2008,06,16,06,49,8.10
2008,06,16,06,50,8.20
2008,06,16,06,51,8.30
2008,06,16,06,52,8.40
2008,06,16,06,53,8.50
2008,06,16,06,54,8.70
2008,06,16,06,55,8.80
2008,06,16,06,56,8.90
2008,06,16,06,57,8.90
2008,06,16,06,58,9.00
2008,06,16,06,59,9.00
2008,06,16,07,00,9.10
2008,06,16,07,01,9.10
2008,06,16,07,02,9.20
2008,06,16,07,03,9.30
2008,06,16,07,04,9.40
2008,06,16,07,05,9.50
2008,06,16,07,06,9.60
2008,06,16,07,07,9.70
2008,06,16,07,08,9.90
2008,06,16,07,09,10.10
2008,06,16,07,10,10.20
2008,06,16,07,11,10.30
2008,06,16,07,12,10.30
2008,06,16,07,13,10.40
2008,06,16,07,14,10.50
2008,06,16,07,15,10.60
2008,06,16,07,16,10.60
2008,06,16,07,17,10.70
2008,06,16,07,18,10.70
2008,06,16,07,19,10.80
2008,06,16,07,20,11.00
2008,06,16,07,21,11.10
2008,06,16,07,22,11.20
2008,06,16,07,23,11.30
2008,06,16,07,24,11.40
2008,06,16,07,25,11.50
2008,06,16,07,26,11.60
2008,06,16,07,27,11.60
2008,06,16,07,28,11.70
2008,06,16,07,29,11.80
2008,06,16,07,30,11.80
2008,06,16,07,31,11.90
2008,06,16,07,32,11.90
2008,06,16,07,33,12.00
2008,06,16,07,34,12.00
2008,06,16,07,35,12.10
2008,06,16,07,36,12.20
2008,06,16,07,37,12.30
2008,06,16,07,38,12.40
2008,06,16,07,39,12.40
2008,06,16,07,40,12.40
2008,06,16,07,41,12.30
2008,06,16,07,42,12.40
2008,06,16,07,43,12.40
2008,06,16,07,44,12.50
2008,06,16,07,45,12.60
2008,06,16,07,46,12.70
2008,06,16,07,47,12.80
2008,06,16,07,48,12.80
2008,06,16,07,49,12.80
2008,06,16,07,50,12.80
2008,06,16,07,51,12.80
2008,06,16,07,52,12.90
2008,06,16,07,53,13.00
2008,06,16,07,54,13.10
2008,06,16,07,55,13.20
2008,06,16,07,56,13.20
2008,06,16,07,57,13.10
2008,06,16,07,58,13.00
2008,06,16,07,59,13.00
2008,06,16,08,00,13.00
2008,06,16,08,01,13.00
2008,06,16,08,02,13.10
2008,06,16,08,03,13.20
2008,06,16,08,04,13.30
2008,06,16,08,05,13.40
2008,06,16,08,06,13.50
2008,06,16,08,07,13.60
2008,06,16,08,08,13.70
2008,06,16,08,09,13.70
2008,06,16,08,10,13.70
2008,06,16,08,11,13.80
2008,06,16,08,12,13.80
2008,06,16,08,13,13.80
2008,06,16,08,14,13.90
2008,06,16,08,15,13.90
2008,06,16,08,16,14.00
2008,06,16,08,17,14.00
2008,06,16,08,18,14.10
2008,06,16,08,19,14.20
2008,06,16,08,20,14.30
2008,06,16,08,21,14.40
2008,06,16,08,22,14.50
2008,06,16,08,23,14.60
2008,06,16,08,24,14.60
2008,06,16,08,25,14.60
2008,06,16,08,26,14.50
2008,06,16,08,27,14.40
2008,06,16,08,28,14.30
2008,06,16,08,29,14.20
2008,06,16,08,30,14.20
2008,06,16,08,31,14.20
2008,06,16,08,32,14.10
2008,06,16,08,33,14.10
2008,06,16,08,34,14.10
2008,06,16,08,35,14.10
2008,06,16,08,36,14.10
2008,06,16,08,37,14.10
2008,06,16,08,38,14.10
2008,06,16,08,39,14.00
2008,06,16,08,40,14.00
2008,06,16,08,41,14.00
2008,06,16,08,42,14.00
2008,06,16,08,43,14.00
2008,06,16,08,44,14.00
2008,06,16,08,45,14.00
2008,06,16,08,46,14.10
2008,06,16,08,47,14.10
2008,06,16,08,48,14.20
2008,06,16,08,49,14.40
2008,06,16,08,50,14.50
2008,06,16,08,51,14.60
2008,06,16,08,52,14.60
2008,06,16,08,53,14.70
2008,06,16,08,54,14.70
2008,06,16,08,55,14.60
2008,06,16,08,56,14.60
2008,06,16,08,57,14.60
2008,06,16,08,58,14.70
2008,06,16,08,59,14.80
2008,06,16,09,00,14.90
2008,06,16,09,01,14.90
2008,06,16,09,02,15.00
2008,06,16,09,03,15.10
2008,06,16,09,04,15.10
2008,06,16,09,05,15.20
2008,06,16,09,06,15.30
2008,06,16,09,07,15.40
2008,06,16,09,08,15.50
2008,06,16,09,09,15.50
2008,06,16,09,10,15.60
2008,06,16,09,11,15.60
2008,06,16,09,12,15.50
2008,06,16,09,13,15.40
2008,06,16,09,14,15.40
2008,06,16,09,15,15.50
2008,06,16,09,16,15.60
2008,06,16,09,17,15.70
2008,06,16,09,18,15.70
2008,06,16,09,19,15.70
2008,06,16,09,20,15.70
2008,06,16,09,21,15.80
2008,06,16,09,22,15.70
2008,06,16,09,23,15.60
2008,06,16,09,24,15.60
2008,06,16,09,25,15.60
2008,06,16,09,26,15.70
2008,06,16,09,27,15.70
2008,06,16,09,28,15.70
2008,06,16,09,29,15.80
2008,06,16,09,30,15.80
2008,06,16,09,31,16.00
2008,06,16,09,32,16.10
2008,06,16,09,33,16.10
2008,06,16,09,34,16.10
2008,06,16,09,35,16.10
2008,06,16,09,36,16.00
2008,06,16,09,37,15.80
2008,06,16,09,38,15.80
2008,06,16,09,39,15.70
2008,06,16,09,40,15.60
2008,06,16,09,41,15.60
2008,06,16,09,42,15.50
2008,06,16,09,43,15.50
2008,06,16,09,44,15.50
2008,06,16,09,45,15.40
2008,06,16,09,46,15.40
2008,06,16,09,47,15.30
2008,06,16,09,48,15.30
2008,06,16,09,49,15.20
2008,06,16,09,50,15.20
2008,06,16,09,51,15.20
2008,06,16,09,52,15.30
2008,06,16,09,53,15.40
2008,06,16,09,54,15.50
2008,06,16,09,55,15.40
2008,06,16,09,56,15.50
2008,06,16,09,57,15.40
2008,06,16,09,58,15.40
2008,06,16,09,59,15.40
2008,06,16,10,00,15.40
2008,06,16,10,01,15.50
2008,06,16,10,02,15.50
2008,06,16,10,03,15.50
2008,06,16,10,04,15.50
2008,06,16,10,05,15.40
2008,06,16,10,06,15.40
2008,06,16,10,07,15.30
2008,06,16,10,08,15.40
2008,06,16,10,09,15.30
2008,06,16,10,10,15.30
2008,06,16,10,11,15.40
2008,06,16,10,12,15.40
2008,06,16,10,13,15.50
2008,06,16,10,14,15.50
2008,06,16,10,15,15.60
2008,06,16,10,16,15.80
2008,06,16,10,17,15.80
2008,06,16,10,18,15.90
2008,06,16,10,19,15.90
2008,06,16,10,20,15.80
2008,06,16,10,21,15.90
2008,06,16,10,22,16.00
2008,06,16,10,23,16.10
2008,06,16,10,24,16.20
2008,06,16,10,25,16.20
2008,06,16,10,26,16.40
2008,06,16,10,27,16.40
2008,06,16,10,28,16.60
2008,06,16,10,29,16.60
2008,06,16,10,30,16.70
2008,06,16,10,31,16.90
2008,06,16,10,32,16.90
2008,06,16,10,33,16.90
2008,06,16,10,34,16.70
2008,06,16,10,35,16.60
2008,06,16,10,36,16.40
2008,06,16,10,37,16.40
2008,06,16,10,38,16.40
2008,06,16,10,39,16.40
2008,06,16,10,40,16.40
2008,06,16,10,41,16.40
2008,06,16,10,42,16.50
2008,06,16,10,43,16.70
2008,06,16,10,44,16.70
2008,06,16,10,45,16.60
2008,06,16,10,46,16.40
2008,06,16,10,47,16.40
2008,06,16,10,48,16.30
2008,06,16,10,49,16.30
2008,06,16,10,50,16.30
2008,06,16,10,51,16.30
2008,06,16,10,52,16.30
2008,06,16,10,53,16.30
2008,06,16,10,54,16.10
2008,06,16,10,55,16.10
2008,06,16,10,56,16.10
2008,06,16,10,57,16.10
2008,06,16,10,58,16.10
2008,06,16,10,59,16.10
2008,06,16,11,00,16.10
2008,06,16,11,01,16.10
2008,06,16,11,02,16.20
2008,06,16,11,03,16.30
2008,06,16,11,04,16.20
2008,06,16,11,05,16.20
2008,06,16,11,06,16.20
2008,06,16,11,07,16.40
2008,06,16,11,08,16.40
2008,06,16,11,09,16.40
2008,06,16,11,10,16.60
2008,06,16,11,11,16.80
2008,06,16,11,12,16.80
2008,06,16,11,13,16.80
2008,06,16,11,14,16.70
2008,06,16,11,15,16.60
2008,06,16,11,16,16.60
2008,06,16,11,17,16.40
2008,06,16,11,18,16.40
2008,06,16,11,19,16.50
2008,06,16,11,20,16.70
2008,06,16,11,21,16.60
2008,06,16,11,22,16.60
2008,06,16,11,23,16.70
2008,06,16,11,24,16.70
2008,06,16,11,25,16.70
2008,06,16,11,26,16.70
2008,06,16,11,27,16.70
2008,06,16,11,28,16.70
2008,06,16,11,29,16.80
2008,06,16,11,30,16.80
2008,06,16,11,31,16.80
2008,06,16,11,32,16.80
2008,06,16,11,33,16.90
2008,06,16,11,34,17.10
2008,06,16,11,35,17.10
2008,06,16,11,36,17.20
2008,06,16,11,37,17.30
2008,06,16,11,38,17.30
2008,06,16,11,39,17.30
2008,06,16,11,40,17.30
2008,06,16,11,41,17.20
2008,06,16,11,42,17.20
2008,06,16,11,43,17.10
2008,06,16,11,44,17.00
2008,06,16,11,45,17.00
2008,06,16,11,46,16.90
2008,06,16,11,47,17.00
2008,06,16,11,48,17.00
2008,06,16,11,49,17.00
2008,06,16,11,50,16.90
2008,06,16,11,51,16.90
2008,06,16,11,52,16.90
2008,06,16,11,53,16.90
2008,06,16,11,54,16.90
2008,06,16,11,55,16.90
2008,06,16,11,56,16.90
2008,06,16,11,57,17.00
2008,06,16,11,58,17.20
2008,06,16,11,59,17.30
2008,06,16,12,00,17.30
2008,06,16,12,01,17.40
2008,06,16,12,02,17.50
2008,06,16,12,03,17.50
2008,06,16,12,04,17.60
2008,06,16,12,05,17.70
2008,06,16,12,06,17.70
2008,06,16,12,07,17.90
2008,06,16,12,08,17.80
2008,06,16,12,09,17.70
2008,06,16,12,10,17.60
2008,06,16,12,11,17.60
2008,06,16,12,12,17.60
2008,06,16,12,13,17.40
2008,06,16,12,14,17.30
2008,06,16,12,15,17.20
2008,06,16,12,16,17.20
2008,06,16,12,17,17.20
2008,06,16,12,18,17.10
2008,06,16,12,19,17.00
2008,06,16,12,20,16.90
2008,06,16,12,21,16.80
2008,06,16,12,22,16.80
2008,06,16,12,23,16.90
2008,06,16,12,24,16.90
2008,06,16,12,25,16.90
2008,06,16,12,26,16.90
2008,06,16,12,27,17.10
2008,06,16,12,28,17.20
2008,06,16,12,29,17.30
2008,06,16,12,30,17.30
2008,06,16,12,31,17.30
2008,06,16,12,32,17.30
2008,06,16,12,33,17.30
2008,06,16,12,34,17.30
2008,06,16,12,35,17.30
2008,06,16,12,36,17.30
2008,06,16,12,37,17.40
2008,06,16,12,38,17.40
2008,06,16,12,39,17.40
2008,06,16,12,40,17.30
2008,06,16,12,41,17.30
2008,06,16,12,42,17.40
2008,06,16,12,43,17.50
2008,06,16,12,44,17.50
2008,06,16,12,45,17.50
2008,06,16,12,46,17.40
2008,06,16,12,47,17.50
2008,06,16,12,48,17.60
2008,06,16,12,49,17.70
2008,06,16,12,50,17.70
2008,06,16,12,51,17.70
2008,06,16,12,52,17.70
2008,06,16,12,53,17.70
2008,06,16,12,54,17.80
2008,06,16,12,55,17.80
2008,06,16,12,56,17.70
2008,06,16,12,57,17.70
2008,06,16,12,58,17.80
2008,06,16,12,59,17.90
2008,06,16,13,00,17.90
2008,06,16,13,01,17.90
2008,06,16,13,02,17.90
2008,06,16,13,03,17.90
2008,06,16,13,04,17.80
2008,06,16,13,05,17.70
2008,06,16,13,06,17.50
2008,06,16,13,07,17.40
2008,06,16,13,08,17.30
2008,06,16,13,09,17.50
2008,06,16,13,10,17.70
2008,06,16,13,11,17.90
2008,06,16,13,12,17.90
2008,06,16,13,13,17.90
2008,06,16,13,14,17.90
2008,06,16,13,15,17.90
2008,06,16,13,16,17.90
2008,06,16,13,17,18.00
2008,06,16,13,18,18.10
2008,06,16,13,19,18.10
2008,06,16,13,20,18.20
2008,06,16,13,21,18.30
2008,06,16,13,22,18.40
2008,06,16,13,23,18.40
2008,06,16,13,24,18.20
2008,06,16,13,25,18.20
2008,06,16,13,26,18.20
2008,06,16,13,27,18.20
2008,06,16,13,28,18.20
2008,06,16,13,29,18.20
2008,06,16,13,30,18.00
2008,06,16,13,31,17.90
2008,06,16,13,32,17.90
2008,06,16,13,33,17.90
2008,06,16,13,34,17.90
2008,06,16,13,35,18.00
2008,06,16,13,36,17.90
2008,06,16,13,37,17.70
2008,06,16,13,38,17.50
2008,06,16,13,39,17.40
2008,06,16,13,40,17.60
2008,06,16,13,41,17.80
2008,06,16,13,42,17.90
2008,06,16,13,43,18.10
2008,06,16,13,44,18.10
2008,06,16,13,45,17.90
2008,06,16,13,46,17.80
2008,06,16,13,47,17.80
2008,06,16,13,48,17.70
2008,06,16,13,49,17.40
2008,06,16,13,50,17.30
2008,06,16,13,51,17.30
2008,06,16,13,52,17.20
2008,06,16,13,53,17.20
2008,06,16,13,54,17.30
2008,06,16,13,55,17.30
2008,06,16,13,56,17.40
2008,06,16,13,57,17.30
2008,06,16,13,58,17.10
2008,06,16,13,59,17.10
2008,06,16,14,00,17.00
2008,06,16,14,01,17.00
2008,06,16,14,02,17.00
2008,06,16,14,03,17.00
2008,06,16,14,04,17.00
2008,06,16,14,05,17.00
2008,06,16,14,06,17.00
2008,06,16,14,07,16.90
2008,06,16,14,08,16.70
2008,06,16,14,09,16.70
2008,06,16,14,10,16.80
2008,06,16,14,11,17.00
2008,06,16,14,12,17.20
2008,06,16,14,13,17.40
2008,06,16,14,14,17.60
2008,06,16,14,15,17.80
2008,06,16,14,16,18.00
2008,06,16,14,17,18.10
2008,06,16,14,18,18.00
2008,06,16,14,19,17.90
2008,06,16,14,20,17.90
2008,06,16,14,21,17.90
2008,06,16,14,22,17.90
2008,06,16,14,23,17.80
2008,06,16,14,24,17.70
2008,06,16,14,25,17.70
2008,06,16,14,26,17.70
2008,06,16,14,27,17.70
2008,06,16,14,28,17.50
2008,06,16,14,29,17.30
2008,06,16,14,30,17.30
2008,06,16,14,31,17.50
2008,06,16,14,32,17.60
2008,06,16,14,33,17.80
2008,06,16,14,34,17.90
2008,06,16,14,35,18.10
2008,06,16,14,36,18.20
2008,06,16,14,37,18.40
2008,06,16,14,38,18.50
2008,06,16,14,39,18.60
2008,06,16,14,40,18.70
2008,06,16,14,41,18.70
2008,06,16,14,42,18.80
2008,06,16,14,43,18.80
2008,06,16,14,44,19.00
2008,06,16,14,45,19.30
2008,06,16,14,46,19.50
2008,06,16,14,47,19.60
2008,06,16,14,48,19.50
2008,06,16,14,49,19.40
2008,06,16,14,50,19.30
2008,06,16,14,51,19.10
2008,06,16,14,52,19.20
2008,06,16,14,53,19.20
2008,06,16,14,54,19.30
2008,06,16,14,55,19.30
2008,06,16,14,56,19.40
2008,06,16,14,57,19.50
2008,06,16,14,58,19.20
2008,06,16,14,59,19.10
2008,06,16,15,00,19.10
2008,06,16,15,01,18.90
2008,06,16,15,02,19.00
2008,06,16,15,03,19.20
2008,06,16,15,04,19.30
2008,06,16,15,05,19.40
2008,06,16,15,06,19.50
2008,06,16,15,07,19.70
2008,06,16,15,08,19.80
2008,06,16,15,09,19.90
2008,06,16,15,10,19.80
2008,06,16,15,11,20.00
2008,06,16,15,12,20.10
2008,06,16,15,13,20.10
2008,06,16,15,14,19.90
2008,06,16,15,15,19.80
2008,06,16,15,16,19.90
2008,06,16,15,17,19.90
2008,06,16,15,18,19.90
2008,06,16,15,19,19.80
2008,06,16,15,20,19.80
2008,06,16,15,21,19.70
2008,06,16,15,22,19.70
2008,06,16,15,23,19.80
2008,06,16,15,24,19.90
2008,06,16,15,25,19.90
2008,06,16,15,26,19.90
2008,06,16,15,27,20.00
2008,06,16,15,28,20.10
2008,06,16,15,29,20.20
2008,06,16,15,30,20.20
2008,06,16,15,31,20.20
2008,06,16,15,32,20.20
2008,06,16,15,33,20.10
2008,06,16,15,34,20.20
2008,06,16,15,35,20.20
2008,06,16,15,36,20.20
2008,06,16,15,37,20.20
2008,06,16,15,38,20.30
2008,06,16,15,39,20.30
2008,06,16,15,40,20.30
2008,06,16,15,41,20.30
2008,06,16,15,42,20.40
2008,06,16,15,43,20.40
2008,06,16,15,44,20.30
2008,06,16,15,45,20.40
2008,06,16,15,46,20.50
2008,06,16,15,47,20.50
2008,06,16,15,48,20.50
2008,06,16,15,49,20.70
2008,06,16,15,50,20.80
2008,06,16,15,51,20.80
2008,06,16,15,52,20.90
2008,06,16,15,53,21.00
2008,06,16,15,54,21.10
2008,06,16,15,55,21.10
2008,06,16,15,56,21.10
2008,06,16,15,57,21.10
2008,06,16,15,58,21.20
2008,06,16,15,59,21.30
2008,06,16,16,00,21.40
2008,06,16,16,01,21.50
2008,06,16,16,02,21.60
2008,06,16,16,03,21.60
2008,06,16,16,04,21.60
2008,06,16,16,05,21.60
2008,06,16,16,06,21.70
2008,06,16,16,07,21.70
2008,06,16,16,08,21.70
2008,06,16,16,09,21.80
2008,06,16,16,10,21.90
2008,06,16,16,11,21.80
2008,06,16,16,12,21.80
2008,06,16,16,13,21.70
2008,06,16,16,14,21.70
2008,06,16,16,15,21.70
2008,06,16,16,16,21.60
2008,06,16,16,17,21.70
2008,06,16,16,18,21.70
2008,06,16,16,19,21.80
2008,06,16,16,20,21.90
2008,06,16,16,21,21.90
2008,06,16,16,22,21.90
2008,06,16,16,23,21.80
2008,06,16,16,24,21.80
2008,06,16,16,25,21.70
2008,06,16,16,26,21.60
2008,06,16,16,27,21.60
2008,06,16,16,28,21.60
2008,06,16,16,29,21.50
2008,06,16,16,30,21.40
2008,06,16,16,31,21.20
2008,06,16,16,32,21.20
2008,06,16,16,33,21.20
2008,06,16,16,34,21.10
2008,06,16,16,35,21.10
2008,06,16,16,36,21.00
2008,06,16,16,37,21.00
2008,06,16,16,38,20.90
2008,06,16,16,39,20.90
2008,06,16,16,40,20.90
2008,06,16,16,41,20.90
2008,06,16,16,42,20.90
2008,06,16,16,43,21.00
2008,06,16,16,44,21.00
2008,06,16,16,45,21.00
2008,06,16,16,46,21.00
2008,06,16,16,47,21.00
2008,06,16,16,48,21.00
2008,06,16,16,49,20.90
2008,06,16,16,50,20.90
2008,06,16,16,51,20.80
2008,06,16,16,52,20.80
2008,06,16,16,53,20.80
2008,06,16,16,54,20.80
2008,06,16,16,55,20.80
2008,06,16,16,56,20.80
2008,06,16,16,57,20.80
2008,06,16,16,58,20.80
2008,06,16,16,59,20.80
2008,06,16,17,00,20.90
2008,06,16,17,01,20.90
2008,06,16,17,02,20.90
2008,06,16,17,03,21.00
2008,06,16,17,04,20.90
2008,06,16,17,05,20.90
2008,06,16,17,06,20.90
2008,06,16,17,07,20.90
2008,06,16,17,08,20.80
2008,06,16,17,09,20.80
2008,06,16,17,10,20.80
2008,06,16,17,11,20.80
2008,06,16,17,12,20.80
2008,06,16,17,13,20.70
2008,06,16,17,14,20.70
2008,06,16,17,15,20.70
2008,06,16,17,16,20.80
2008,06,16,17,17,20.80
2008,06,16,17,18,20.90
2008,06,16,17,19,20.90
2008,06,16,17,20,21.10
2008,06,16,17,21,21.30
2008,06,16,17,22,21.40
2008,06,16,17,23,21.40
2008,06,16,17,24,21.60
2008,06,16,17,25,21.80
2008,06,16,17,26,21.90
2008,06,16,17,27,22.00
2008,06,16,17,28,22.00
2008,06,16,17,29,21.90
2008,06,16,17,30,21.90
2008,06,16,17,31,21.90
2008,06,16,17,32,21.90
2008,06,16,17,33,21.80
2008,06,16,17,34,21.80
2008,06,16,17,35,21.80
2008,06,16,17,36,21.90
2008,06,16,17,37,21.80
2008,06,16,17,38,21.80